Simultaneous Nadir Overpasses (SNOs) Predictions

Prediction of SNOs between AQUA and METOP-A Satellite Orbit:

Table of predicted SNOs for the next 14.0 days since TLE Epoch: 12/28/2018
Index Date (AQUA) Time (AQUA) Lat,Lon (AQUA) SZA (AQUA ) Date (METOP-A) Time (METOP-A) Lat,Lon (METOP-A) SZA (METOP-A ) Distance(km) Time Diff (sec)
1 12/29/2018 13:08:55 -74.60, 155.25 82.15 12/29/2018 13:07:43 -74.50, 154.36 82.20 28.40 72
2 12/29/2018 13:58:26 74.75, -37.51 98.02 12/29/2018 13:58:17 74.76, -37.61 98.04 3.37 9
3 12/29/2018 14:47:53 -74.85, 129.90 81.88 12/29/2018 14:48:57 -74.86, 129.97 81.88 2.74 64
4 01/01/2019 08:43:09 -74.56,-138.22 82.38 01/01/2019 08:41:57 -74.50,-139.25 82.38 31.23 72
5 01/01/2019 09:32:41 74.76, 28.90 97.85 01/01/2019 09:32:31 74.76, 28.78 97.85 3.54 10
6 01/01/2019 10:22:08 -74.86,-163.69 82.06 01/01/2019 10:23:11 -74.86,-163.63 82.07 1.79 63
7 01/04/2019 04:17:24 -74.52, -71.69 82.66 01/04/2019 04:16:13 -74.44, -72.98 82.68 39.29 71
8 01/04/2019 05:06:57 74.78, 95.29 97.62 01/04/2019 05:06:45 74.80, 95.30 97.64 2.07 12
9 01/04/2019 05:56:24 -74.87, -97.29 82.29 01/04/2019 05:57:26 -74.85, -97.24 82.32 2.90 62
10 01/06/2019 23:51:39 -74.49, -5.18 83.00 01/06/2019 23:50:29 -74.39, -6.72 83.03 47.34 70
11 01/07/2019 00:41:13 74.80, 161.68 97.34 01/07/2019 00:41:00 74.79, 161.68 97.33 1.41 13
12 01/07/2019 01:30:39 -74.84, -30.78 82.63 01/07/2019 01:31:41 -74.84, -30.85 82.63 2.19 62
13 01/09/2019 19:25:52 -74.41, 61.45 83.45 01/09/2019 19:24:43 -74.38, 59.67 83.40 53.40 69
14 01/09/2019 20:15:27 74.78,-131.83 96.95 01/09/2019 20:15:14 74.78,-131.94 96.96 3.23 13
15 01/09/2019 21:04:54 -74.87, 35.60 82.97 01/09/2019 21:05:54 -74.88, 35.66 82.96 2.56 60




NCC Satellite Simultaneous Nadir Overpasses (SNOs) Prediction Service
